Observations for Trim Market St
| Time | AQI | Temp °C | Hum % | Pres Pa | CO μg/m³ | H₂S μg/m³ | NO μg/m³ | NO₂ μg/m³ | O₃ μg/m³ | SO₂ μg/m³ | PM1 μg/m³ | PM2.5 μg/m³ | PM10 μg/m³ |
|---|---|---|---|---|---|---|---|---|---|---|---|---|---|
| Tuesday 11 August 2026 | |||||||||||||
| 07:27 | 2 | 16.7 | 73 | 51,670 | 0.65 | 0 | 2.21 | 36.61 | 23.84 | 0 | 1.43 | 3.4 | 5.7 |
| 07:25 | 2 | 16.4 | 73 | 50,855 | 0.64 | 0 | 2.28 | 32.13 | 22.61 | 0 | 1.43 | 2.89 | 5.71 |
| 07:24 | 2 | 16.3 | 74 | 50,330 | 0.64 | 0 | 2.31 | 35.52 | 23.37 | 0 | 0.71 | 2.89 | 5.11 |
| 07:23 | 2 | 16.1 | 74 | 49,695 | 0.65 | 0 | 2.38 | 39.5 | 16.53 | 0 | 1.43 | 3.36 | 6.93 |
| 07:22 | 2 | 16 | 74 | 48,991 | 0.63 | 0 | 2.43 | 27.77 | 22.03 | 0 | 2.14 | 3.83 | 6.32 |
| 07:21 | 2 | 15.8 | 74 | 48,019 | 0.63 | 0 | 2.51 | 30.88 | 22.24 | 0 | 2.14 | 3.35 | 6.32 |
| 07:20 | 2 | 15.7 | 74 | 46,963 | 0.63 | 0 | 2.49 | 33.46 | 27.03 | 0 | 1.43 | 2.86 | 6.33 |
| 07:19 | 2 | 15.6 | 74 | 45,947 | 0.61 | 0 | 2.53 | 28.29 | 24.28 | 0 | 0.71 | 1.89 | 5.13 |
| 07:17 | 2 | 15.3 | 75 | 43,334 | 0.61 | 0 | 2.59 | 29.07 | 22.11 | 0 | 1.43 | 2.83 | 5.14 |
| 07:15 | 2 | 15.1 | 75 | 40,588 | 0.66 | 0 | 2.74 | 28.92 | 21.79 | 0 | 1.43 | 3.29 | 5.74 |
| 07:13 | 2 | 14.9 | 76 | 37,274 | 0.68 | 0 | 2.85 | 27.94 | 24.2 | 0 | 2.14 | 3.75 | 6.34 |
| 07:07 | 2 | 14.2 | 76 | 33,135 | 0.56 | 0 | 3.05 | 28.52 | 45.28 | 0 | 1.43 | 2.77 | 5.76 |
| 07:05 | 2 | 14 | 76 | 33,217 | 0.6 | 0 | 3.02 | 30.79 | 43.07 | 0 | 1.43 | 3.25 | 8.12 |
| 07:03 | 2 | 13.8 | 76 | 33,373 | 0.55 | 0 | 3.09 | 25.7 | 44.6 | 0 | 1.43 | 3.24 | 5.76 |
| 06:59 | 2 | 13.5 | 76 | 32,984 | 0.54 | 0 | 3.17 | 28.12 | 24.16 | 0 | 2.85 | 3.24 | 5.76 |
| 06:55 | 2 | 13.2 | 76 | 33,686 | 1.1 | 0 | 3.38 | 34.88 | 27.49 | 0 | 2.14 | 3.72 | 6.35 |
| 06:54 | 2 | 13.1 | 76 | 34,354 | 1.48 | 0 | 3.3 | 30.1 | 35.58 | 0 | 1.43 | 5.64 | 8.71 |
| 06:53 | 2 | 13.1 | 76 | 35,101 | 1.03 | 0 | 3.32 | 32.75 | 31.59 | 0 | 2.14 | 3.73 | 6.35 |
| 06:52 | 2 | 13.1 | 76 | 36,109 | 1.01 | 0 | 3.68 | 35.84 | 27.69 | 0 | 2.14 | 4.21 | 6.94 |
| 06:51 | 2 | 13 | 76 | 37,263 | 1 | 0 | 6.4 | 35.45 | 32.44 | 0 | 2.14 | 3.26 | 6.35 |